Regional Weather Roundup
Issued by NWS Cleveland, OH

Home | Current Version | Previous Version | Text Only | Print | Product List | Glossary Off
Versions: 1 2 3 4 5 6 7 8 9 10 11 12 13 14 15 16 17 18 19 20 21 22 23 24 25 26 27 28 29 30 31 32 33 34 35 36 37 38 39 40 41 42 43 44 45 46 47 48 49 50

810
ASUS41 KCLE 210712
RWRCLE
OHIO REGIONAL WEATHER ROUNDUP
NATIONAL WEATHER SERVICE WILMINGTON, OH
200 AM EST SAT JAN 21 2017

NOTE: "FAIR" INDICATES FEW OR NO CLOUDS BELOW 12,000 FEET WITH NO
SIGNIFICANT WEATHER AND/OR OBSTRUCTIONS TO VISIBILITY.

OHZ001>008-015>018-024>027-034-035-043-044-210800-
   NORTHWEST OHIO

CITY           SKY/WX    TMP DP  RH WIND       PRES   REMARKS
DEFIANCE       CLOUDY    48  46  93 S6        29.71F
FINDLAY        CLOUDY    50  45  83 SE9       29.72F
TOLEDO EXPRESS CLOUDY    46  46 100 SE3       29.72F FOG
TOLEDO EXEC    CLOUDY    46  46 100 SE5       29.74S FOG
LIMA           CLOUDY    50  48  93 S7        29.72F
$$

OHZ009>014-019>023-028>033-038-089-210800-
   NORTHEAST OHIO

CITY           SKY/WX    TMP DP  RH WIND       PRES   REMARKS
CLE-HOPKINS    FAIR      46  43  89 S7        29.80S
CLE-LAKEFRONT  FAIR      46  44  93 S6        29.77S
CUY CO. ARPT   NOT AVBL
LORAIN-ELYRIA  CLOUDY    44  41  89 S8        29.78S
ASHTABULA      FOG       47  47 100 SE3       29.80F VSB 1/2
AKRON-CANTON   MOCLDY    47  45  93 S5        29.80S FOG
WOOSTER        FOG       37  36  96 CALM      29.80S VSB 1/4
MANSFIELD      CLOUDY    47  46  97 S7        29.78S
YOUNGSTOWN     FAIR      43  41  93 SE6       29.80F FOG
$$

OHZ042-051>053-060>062-070>072-077>081-210800-
  SOUTHWEST OHIO

CITY           SKY/WX    TMP DP  RH WIND       PRES   REMARKS
CINC-COVINGTON MOCLDY    51  47  86 S7        29.74S
CINC-LUNKEN    MOCLDY    44  44 100 CALM      29.76S FOG
HAMILTON       MOCLDY    46  46 100 E3        29.75S
DAYTON         MOCLDY    50  47  89 S10       29.74F
WRIGHT-PAT AFB FAIR      49  49 100 VRB3      29.74F
DAYTON GENERAL NOT AVBL
WILMINGTON     FAIR      47  45  93 SE5       29.75F
$$

OHZ036-037-039>041-045>050-054>059-063>069-073>076-082>088-210800-
  CENTRAL AND SOUTHEAST OHIO

CITY           SKY/WX    TMP DP  RH WIND       PRES   REMARKS
COLUMBUS       MOCLDY    50  46  86 SE6       29.77F
OSU AIRPORT    FAIR      50  48  93 SE6       29.77S
BOLTON FIELD   CLOUDY    49  48  96 SE5       29.78S
RICKENBACK AFB   N/A     44  44 100 E3        29.77F
NEWARK         FOG       41  40  96 CALM      29.79S VSB 3/4
MARION         CLOUDY    48  46  93 S9        29.76F FOG
LANCASTER      FOG       41  38  89 CALM      29.79S VSB 1/4
ZANESVILLE     FOG       41  39  93 CALM      29.80R VSB 1/2
NEW PHILLY     FOG       39  39 100 SE3       29.82R VSB 1/2
$$




USA.gov is the U.S. government's official web portal to all federal, state and local government web resources and services.